Flag for Falkland Islands Weather past 2 weeks in Stanley, Falkland Islands

Now
50 °F

Passing clouds.


Feels Like: 47 °F
Forecast: 47 / 58 °F
Wind: 8 mph from Northwest

Location: Mount Pleasant Airport

Current Time: Jan 29, 2015 at 9:43:59 PM

Latest Report: Jan 29, 2015 at 8:50 PM


Visibility: N/A

Pressure: 29.95 "Hg

Humidity: 67%

Dew point: 39 °F

Location of StanleyLocation

Historic Weather in Stanley — Graph

°F

Stanley temperature yesterday

Maximum temperature yesterday: 50 °F (at 1:50 PM)
Minimum temperature yesterday: 45 °F (at 3:04 AM)
Average temperature yesterday: 47 °F

Past Weeks' High & Low Weather Summary

 TemperatureHumidityPressure
High77 °F (Jan 22, 1:50 PM)100% (Jan 23, 5:50 AM)30.01 "Hg (Jan 23, 5:50 AM)
Low36 °F (Jan 18, 2:50 AM)34% (Jan 22, 5:50 PM)29.21 "Hg (Jan 15, 1:50 PM)
Average49 °F75%29.67 "Hg
* Reported Jan 14 7:50 PM — Jan 29 7:50 PM, Stanley, Weather by CustomWeather, © 2014

Note: Actual official high and low records may vary slightly from our data, if they occured in-between our weather recording intervals... More about our weather records

Advertising

Stanley weather history for previous 24 hours

 ConditionsComfort  
Time TempWeatherWind HumidityBarometerVisibility
7:50 PM
Jan 29
54 °FPassing clouds.13 mph58%29.95 "HgN/A
6:50 PM55 °FSunny.14 mph55%29.95 "Hg10 mi
5:50 PM59 °FPartly sunny.14 mph48%29.95 "HgN/A
4:50 PM59 °FPartly sunny.14 mph48%29.98 "HgN/A
3:50 PM61 °FScattered clouds.15 mph45%29.98 "HgN/A
2:50 PM59 °FScattered clouds.16 mph45%29.98 "HgN/A
1:50 PM59 °FPartly sunny.13 mph45%29.98 "HgN/A
12:50 PM55 °FScattered clouds.12 mph51%30.01 "HgN/A
11:50 AM55 °FScattered clouds.8 mph51%30.01 "HgN/A
10:50 AM54 °FPartly sunny.14 mph54%30.01 "HgN/A
9:50 AM54 °FPartly sunny.17 mph58%30.01 "HgN/A
8:50 AM50 °FPartly sunny.17 mph67%30.01 "HgN/A
7:50 AM48 °FPartly sunny.16 mph76%30.01 "HgN/A
6:50 AM46 °FPartly sunny.9 mph87%30.01 "HgN/A
5:50 AM46 °FPartly sunny.12 mph87%30.01 "HgN/A
4:50 AM46 °FPassing clouds.15 mph82%29.98 "HgN/A
3:50 AM46 °FClear.17 mph82%29.98 "HgN/A
2:50 AM46 °FClear.14 mph82%29.95 "HgN/A
1:50 AM46 °FPassing clouds.17 mph82%29.95 "HgN/A
12:50 AM46 °FPassing clouds.20 mph76%29.95 "HgN/A
11:50 PM
Jan 28
46 °FPassing clouds.25 mph71%29.92 "HgN/A
10:50 PM46 °FPassing clouds.26 mph71%29.92 "HgN/A
9:50 PM45 °FPassing clouds.28 mph76%29.89 "HgN/A
Weather by CustomWeather, © 2014

See weather overviewHow to use our weather pages